Tracking 29747 objects as of 9-Oct-2024
HD Live streaming from Space Station
objects crossing your sky now

SL-14 DEB

Track SL-14 DEB now!
10-day predictions


NORAD ID: 45459
Int'l Code: 1991-056CT
Perigee: 871.7 km
Apogee: 1,203.2 km
Inclination: 82.6 °
Period: 105.8 minutes
Semi major axis: 7408 km
RCS: Unknown
Launch date: August 15, 1991
Source: Commonwealth of Independent States (former USSR) (CIS)
Launch site: PLESETSK MISSILE AND SPACE COMPLEX (PKMTR)

Note: This is SATELLITE DEBRIS
Your satellite tracking list
Your tracking list is empty




NASA's NSSDC Master Catalog

Two Line Element Set (TLE):
1 45459U 91056CT  24271.15697152  .00030206  00000-0  33352-1 0  9998
2 45459  82.5965 172.7889 0223762  22.6898 338.3953 13.61486476227497
Source of the keplerian elements: AFSPC